Regional Weather Roundup
Issued by NWS

Home | Current Version | Previous Version | Text Only | Print | Product List | Glossary On
Versions: 1 2 3 4 5 6 7 8 9 10 11 12 13 14 15 16 17 18 19 20 21 22 23 24 25 26 27 28 29 30 31 32 33 34 35 36 37 38 39 40 41 42 43 44 45 46 47 48 49 50
000
ASUS44 KFWD 271603
RWRTX
NORTH TEXAS HOURLY WEATHER ROUNDUP
NATIONAL WEATHER SERVICE FORT WORTH TX
1000 AM CST THU NOV 27 2014

NOTE: "FAIR" INDICATES FEW OR NO CLOUDS BELOW 12,000 FEET WITH NO
SIGNIFICANT WEATHER AND/OR OBSTRUCTIONS TO VISIBILITY.

TXZ118-119-271700-
DALLAS/FORT WORTH METROPLEX

CITY           SKY/WX    TMP DP  RH WIND       PRES   REMARKS
DFW AIRPORT    MOSUNNY   45  26  47 VRB3      30.55R
DALLAS LOVE    MOSUNNY   48  24  39 NE5       30.56R
FTW MEACHAM    SUNNY     46  28  49 NE5       30.55R
DAL-EXECUTIVE  SUNNY     49  23  36 SE3       30.55R
FTW-ALLIANCE   SUNNY     44  27  51 VRB3      30.55R
FTW-SPINKS     SUNNY     46  28  49 NE7       30.56S
ARLINGTON      SUNNY     48  23  37 NE5       30.55S
ADDISON        SUNNY     45  21  39 E3        30.56
MESQUITE       SUNNY     45  25  45 N5        30.56R
LANCASTER      SUNNY     46  22  38 NE7       30.57R
$$

TXZ091>094-102>105-117-120-121-131>134-271700-
NORTH CENTRAL TEXAS

CITY           SKY/WX    TMP DP  RH WIND       PRES   REMARKS
SHRMAN/DENISON SUNNY     43  28  55 NE6       30.56R WCI  40
BRIDGEPORT     SUNNY     44  31  58 E7        30.57S
DECATUR        SUNNY     44  25  48 NE5       30.55R
DENTON         SUNNY     45  25  45 E7        30.56R
MCKINNEY       SUNNY     46  25  43 NE7       30.56R
ROCKWALL       SUNNY     46  26  45 NE8       30.54R
TERRELL        SUNNY     49  26  41 NE9       30.56R
WAXAHACHIE     SUNNY     46  29  50 NE5       30.56S
CLEBURNE       SUNNY     48  25  40 E6        30.56S
GRANBURY       SUNNY     47  30  53 CALM      30.57S
$$

TXZ083>090-098>101-113>116-127>130-139>142-154-155-271700-
WESTERN NORTH TEXAS

CITY           SKY/WX    TMP DP  RH WIND       PRES   REMARKS
WICHITA FALLS  SUNNY     42  27  55 NE5       30.55S WCI  39
WF-KICKAPOO    SUNNY     43  26  51 NE3       30.57R
ABILENE        SUNNY     46  26  45 SE9       30.53R
ABILENE-DYESS  SUNNY     46  26  45 E7        30.53R
MINERAL WELLS  SUNNY     46  28  49 VRB7      30.53R
STEPHENVILLE   SUNNY     47  25  41 E9        30.56R
COMANCHE       HAZE      46  31  57 E6        30.54R VSB 1/4
COLEMAN        SUNNY     46  32  58 SE6       30.53S
$$

TXZ143>147-156>162-174-175-271700-
CENTRAL TEXAS

CITY           SKY/WX    TMP DP  RH WIND       PRES   REMARKS
WACO           SUNNY     49  29  46 NE10      30.55R
WACO-MCGREGOR  SUNNY     48  28  46 NE9       30.56S
CORSICANA      SUNNY     49  28  44 NE7       30.56R
MEXIA          SUNNY     48  28  45 NE9       30.53R
HEARNE         SUNNY     53  27  36 NE9       30.55R
TEMPLE         SUNNY     52  27  37 NE8       30.54R
KILLEEN        SUNNY     47  29  49 NE7       30.54R
KILLEEN-SKYLRK SUNNY     50  27  40 NE8       30.52S
FORT HOOD      SUNNY     53  27  36 NE6       30.54R
GATESVILLE     SUNNY     48  28  46 E5        30.56S
HAMILTON       SUNNY     47  28  47 E9        30.54S
LAMPASAS       LGT RAIN  49  31  51 E7        30.53R
$$

TXZ095>097-106>112-122>126-135>138-148>153-164>167-271700-
EAST TEXAS

CITY           SKY/WX    TMP DP  RH WIND       PRES   REMARKS
PARIS          SUNNY     45  27  49 NE9       30.56R WCI  40
SULPHUR SPRNGS SUNNY     48  23  37 NE7       30.57R
MOUNT PLEASANT SUNNY     47  25  41 N8        30.56S
MINEOLA        SUNNY     48  21  34 CALM      30.55R
TYLER          SUNNY     50  25  37 NE8       30.53R
LONGVIEW       SUNNY     52  27  38 VRB6      30.52R
MARSHALL       SUNNY     51  29  43 NE3       30.55S
ATHENS         SUNNY     46  27  46 NE5       30.54R
PALESTINE      SUNNY     51  27  39 NE9       30.55S
JACKSONVILLE   SUNNY     48  29  49 CALM      30.54R
HENDERSON      SUNNY     50  27  42 N8        30.53R
NACOGDOCHES    SUNNY     54  28  37 NE6       30.53R
LUFKIN         SUNNY     55  28  35 NE8       30.52R
$$

SUPPLEMENTAL OBSERVATIONS (CENTRAL)

CITY           SKY/WX    TMP DP  RH WIND       PRES   REMARKS
$$

SUPPLEMENTAL OBSERVATIONS (WEST)

CITY           SKY/WX    TMP DP  RH WIND       PRES   REMARKS
$$

SUPPLEMENTAL OBSERVATIONS (EAST)

CITY           SKY/WX    TMP DP  RH WIND       PRES   REMARKS
$$

SUPPLEMENTAL OBSERVATIONS ARE A COLLECTION OF AUTOMATED INSTRUMENTS
THAT ARE MAINTAINED BY A VARIETY OF FEDERAL AND STATE AGENCIES.
CERTAIN ELEMENTS...SUCH AS HUMIDITY VALUES AND SUSTAINED WIND
SPEEDS...MAY BE APPROXIMATED.



USA.gov is the U.S. government's official web portal to all federal, state and local government web resources and services.